Location: East Arcadia
(34.1056°N, 118.0176°W)
Time: 02:02:38
(UTC+00:00)

Cosmos 962 Rocket - Pass Details

Date: 01 April 2023
Orbit: 950 x 1000 km, 82.9° (Epoch: 08 June)

Event Time Altitude Azimuth Distance (km) Brightness Sun altitude
Exits shadow 12:06:42 22° 207° (SSW) 1,931 5.6 -19.5°
Maximum altitude 12:10:35 57° 278° (W) 1,115 4.5 -18.8°
Drops below altitude 10° 12:16:40 10° 357° (N) 2,708 7.0 -17.6°
Sets 12:19:15 0° 2° (N) 3,666 7.8 -17.1°
